COSMOS 540

导读 | 星芒AI

COSMOS 540 是苏联于1972年发射的一颗电子侦察卫星,主要用于监听和收集外国的无线电通信和雷达信号。该卫星属于“Tsel-3”系列,是苏联情报收集系统的重要组成部分。COSMOS 540 在轨运行期间,成功执行了多次信号情报任务,为苏联提供了关键的军事和战略信息。尽管其具体技术细节不详,但该卫星的发射体现了冷战时期苏联在空间侦察领域的高度发展。

基本信息
目录编号:
6323
目录名称:
COSMOS 540
国际标识:
1972-104A
轨道中心:
EARTH
卫星名称:
COSMOS 540
卫星全名:
--
卫星状态:
在轨 (已飞行19301 天)
发射日期:
1972-12-25 UTC
国别 :
俄罗斯(独联体) (CIS)
星等 :
--
轨道信息
数据来源 国际轨道数据
星历时间: 2025-10-28T23:02:58+0800
16小时前
查看轨道信息
半长轴: 7145.228km
偏心率: 0.0018095
轨道倾角: 74.080°
近地点辐角 193.113°
升交点赤经 164.612°
平近点角 166.956°
近地点: 754.163km
远地点: 780.023km
周期: 100.181分钟
每日圈数: 14.374034
详细信息
使用方式:
暂无
2D轨道图
3D轨道图
轨道高度分析图
轨道倾角分析图
轨道综合分析图
查看轨道综合分析图